{"data":{"norad_id":57038,"epoch":"2026-09-21T21:58:55.874208Z","epoch_age_seconds":77695,"freshness":"FRESH","line1":"1 57038U 23085AL  26264.91592447  .00011397  00000+0  31222-3 0  9995","line2":"2 57038  97.5018  19.1166 0007370  95.2006 265.0079 15.37456947181604","mean_motion":15.37456947,"eccentricity":0.000737,"inclination_deg":97.5018,"raan_deg":19.1166,"arg_perigee_deg":95.2006,"mean_anomaly_deg":265.0079,"bstar":0.00031222,"rev_number":18160,"period_min":93.661159280579,"perigee_km":448.59739344445,"apogee_km":458.6674215511,"semimajor_km":6831.7694074978,"source":"CELESTRAK","updated_at":"2026-09-22T09:00:25.999998Z"}}